,,Stat6,,Stat2,,Stat8,,Stat9,,Stat10,,Wind1,,Wind1,
time,status,PA1M_AVG,status,PR1M_SUM,status,RH1M_AVG,status,SR1M_AVG,status,TA1M_AVG,status,W1dAve1m,status,W1sAve1m,
2004-05-09, 00:00:00,VALID,917.412,VALID,0,VALID,93.8444,VALID,0.0169808,VALID,20.1317,VALID,83,VALID,0,
2004-05-09, 00:01:00,VALID,917.394,VALID,0,VALID,93.5583,VALID,0.0169808,VALID,20.1484,VALID,83,VALID,0,
2004-05-09, 00:02:00,VALID,917.374,VALID,0,VALID,93.6321,VALID,0.0169808,VALID,20.1484,VALID,83,VALID,0,
2004-05-09, 00:03:00,VALID,917.377,VALID,0,VALID,93.5049,VALID,0.0169808,VALID,20.1514,VALID,83,VALID,0,
2004-05-09, 00:04:00,VALID,917.375,VALID,0,VALID,93.4197,VALID,0.0169808,VALID,20.087,VALID,83,VALID,0.09375,
2004-05-09, 00:05:00,VALID,917.367,VALID,0,VALID,94.161,VALID,0,VALID,20.0426,VALID,83,VALID,0.370313,
2004-05-09, 00:06:00,VALID,917.347,VALID,0,VALID,94.4611,VALID,0.0169808,VALID,20.0356,VALID,83,VALID,0.241386,
2004-05-09, 00:07:00,VALID,917.349,VALID,0,VALID,94.4395,VALID,0.0339617,VALID,20.0348,VALID,83,VALID,0.324479,
2004-05-09, 00:08:00,VALID,917.346,VALID,0,VALID,94.2488,VALID,0.0169808,VALID,20.0217,VALID,83,VALID,0.334263,
2004-05-09, 00:09:00,VALID,917.342,VALID,0,VALID,94.1,VALID,0.0339617,VALID,19.9511,VALID,83,VALID,0.41276,
2004-05-09, 00:10:00,VALID,917.344,VALID,0,VALID,94.6379,VALID,0.0339617,VALID,19.893,VALID,83,VALID,0.480741,
2004-05-09, 00:11:00,VALID,917.35,VALID,0,VALID,94.9533,VALID,0.0169808,VALID,19.851,VALID,83,VALID,0.657158,
2004-05-09, 00:12:00,VALID,917.342,VALID,0,VALID,95.2623,VALID,0,VALID,19.822,VALID,79,VALID,0.623935,
2004-05-09, 00:13:00,VALID,917.362,VALID,0,VALID,95.3004,VALID,0.0339617,VALID,19.8155,VALID,66,VALID,0.55625,
2004-05-09, 00:14:00,VALID,917.361,VALID,0,VALID,95.261,VALID,0.0509425,VALID,19.7797,VALID,62,VALID,0.564499,
2004-05-09, 00:15:00,VALID,917.371,VALID,0,VALID,95.261,VALID,0,VALID,19.7444,VALID,62,VALID,0.557173,
2004-05-09, 00:16:00,VALID,917.376,VALID,0,VALID,95.411,VALID,0,VALID,19.6955,VALID,56,VALID,0.83356,
2004-05-09, 00:17:00,VALID,917.372,VALID,0,VALID,95.6933,VALID,0.0339617,VALID,19.7124,VALID,51,VALID,0.968192,
2004-05-09, 00:18:00,VALID,917.375,VALID,0,VALID,95.4721,VALID,0.0169808,VALID,19.7479,VALID,53,VALID,0.727493,
2004-05-09, 00:19:00,VALID,917.36,VALID,0,VALID,95.1364,VALID,0.0169808,VALID,19.7897,VALID,53,VALID,0.577415,
2004-05-09, 00:20:00,VALID,917.337,VALID,0,VALID,94.8592,VALID,0.0169808,VALID,19.855,VALID,53,VALID,0.406977,
2004-05-09, 00:21:00,VALID,917.322,VALID,0,VALID,94.7129,VALID,0,VALID,19.8937,VALID,53,VALID,0.0221354,
2004-05-09, 00:22:00,VALID,917.309,VALID,0,VALID,94.5603,VALID,0.0169808,VALID,19.9,VALID,53,VALID,0.126598,
2004-05-09, 00:23:00,VALID,917.289,VALID,0,VALID,94.4764,VALID,0.0169808,VALID,19.887,VALID,53,VALID,0.442454,
2004-05-09, 00:24:00,VALID,917.274,VALID,0,VALID,94.4967,VALID,0,VALID,19.8709,VALID,53,VALID,0.45419,
2004-05-09, 00:25:00,VALID,917.252,VALID,0,VALID,94.573,VALID,0.0169808,VALID,19.822,VALID,53,VALID,0.549479,
2004-05-09, 00:26:00,VALID,917.257,VALID,0,VALID,94.6544,VALID,0,VALID,19.8289,VALID,53,VALID,0.599023,
2004-05-09, 00:27:00,VALID,917.288,VALID,0,VALID,94.5858,VALID,0,VALID,19.8642,VALID,51,VALID,0.569727,
2004-05-09, 00:28:00,VALID,917.288,VALID,0,VALID,94.2882,VALID,0.0339617,VALID,19.925,VALID,45,VALID,0.446701,
2004-05-09, 00:29:00,VALID,917.29,VALID,0,VALID,93.8673,VALID,0,VALID,19.9869,VALID,45,VALID,0.35245,
2004-05-09, 00:30:00,VALID,917.288,VALID,0,VALID,93.3688,VALID,0.0169808,VALID,20.055,VALID,51,VALID,0.515997,
2004-05-09, 00:31:00,VALID,917.286,VALID,0,VALID,92.5804,VALID,-0.0169808,VALID,20.1384,VALID,56,VALID,0.66183,
2004-05-09, 00:32:00,VALID,917.289,VALID,0,VALID,92.0515,VALID,0,VALID,20.2493,VALID,59,VALID,0.765625,
2004-05-09, 00:33:00,VALID,917.285,VALID,0,VALID,92.1494,VALID,0,VALID,20.3004,VALID,59,VALID,0.732599,
2004-05-09, 00:34:00,VALID,917.282,VALID,0,VALID,92.2689,VALID,0,VALID,20.2975,VALID,59,VALID,0.590909,
2004-05-09, 00:35:00,VALID,917.275,VALID,0,VALID,92.4126,VALID,0,VALID,20.2455,VALID,59,VALID,0.169389,
2004-05-09, 00:36:00,VALID,917.28,VALID,0,VALID,92.658,VALID,0,VALID,20.1939,VALID,59,VALID,0.00304878,
2004-05-09, 00:37:00,VALID,917.287,VALID,0,VALID,92.9696,VALID,0,VALID,20.1357,VALID,59,VALID,0.165516,
2004-05-09, 00:38:00,VALID,917.27,VALID,0,VALID,93.2328,VALID,0,VALID,20.1201,VALID,59,VALID,0.0429688,
2004-05-09, 00:39:00,VALID,917.259,VALID,0,VALID,93.3116,VALID,-0.0169808,VALID,20.1166,VALID,46,VALID,0.172053,
2004-05-09, 00:40:00,VALID,917.224,VALID,0,VALID,93.201,VALID,0,VALID,20.1548,VALID,39,VALID,0.329033,
2004-05-09, 00:41:00,VALID,917.202,VALID,0,VALID,92.7343,VALID,0,VALID,20.2724,VALID,26,VALID,0.593928,
2004-05-09, 00:42:00,VALID,917.203,VALID,0,VALID,92.0426,VALID,0,VALID,20.3879,VALID,26,VALID,0.357088,
2004-05-09, 00:43:00,VALID,917.194,VALID,0,VALID,91.7539,VALID,0,VALID,20.4584,VALID,26,VALID,0.108445,
2004-05-09, 00:44:00,VALID,917.192,VALID,0,VALID,91.478,VALID,0,VALID,20.5042,VALID,23,VALID,0.3125,
2004-05-09, 00:45:00,VALID,917.183,VALID,0,VALID,91.4068,VALID,0,VALID,20.565,VALID,9,VALID,0.0857599,
2004-05-09, 00:46:00,VALID,917.184,VALID,0,VALID,91.1079,VALID,0.0169808,VALID,20.6522,VALID,9,VALID,0.00666921,
2004-05-09, 00:47:00,VALID,917.181,VALID,0,VALID,90.8511,VALID,0,VALID,20.6433,VALID,9,VALID,0.271076,
2004-05-09, 00:48:00,VALID,917.173,VALID,0,VALID,91.1308,VALID,0.0169808,VALID,20.5812,VALID,9,VALID,0.0476017,
2004-05-09, 00:49:00,VALID,917.166,VALID,0,VALID,91.1677,VALID,0,VALID,20.5454,VALID,9,VALID,0,
2004-05-09, 00:50:00,VALID,917.163,VALID,0,VALID,90.8727,VALID,0,VALID,20.5484,VALID,9,VALID,0,
2004-05-09, 00:51:00,VALID,917.156,VALID,0,VALID,90.8282,VALID,0,VALID,20.5809,VALID,16,VALID,0.180959,
2004-05-09, 00:52:00,VALID,917.138,VALID,0,VALID,91.038,VALID,0,VALID,20.571,VALID,78,VALID,0.538352,
2004-05-09, 00:53:00,VALID,917.117,VALID,0,VALID,90.5344,VALID,0.0849042,VALID,20.5392,VALID,78,VALID,0.151296,
2004-05-09, 00:54:00,VALID,917.098,VALID,0,VALID,90.6044,VALID,0,VALID,20.5451,VALID,78,VALID,0.0946378,
2004-05-09, 00:55:00,VALID,917.086,VALID,0,VALID,90.3437,VALID,0,VALID,20.5548,VALID,78,VALID,0,
2004-05-09, 00:56:00,VALID,917.062,VALID,0,VALID,89.9113,VALID,0,VALID,20.5712,VALID,78,VALID,0,
2004-05-09, 00:57:00,VALID,917.056,VALID,0,VALID,90.4645,VALID,0.0169808,VALID,20.6008,VALID,78,VALID,0.40625,
2004-05-09, 00:58:00,VALID,917.052,VALID,0,VALID,90.9642,VALID,0.0169808,VALID,20.5586,VALID,78,VALID,0.473011,
2004-05-09, 00:59:00,VALID,917.043,VALID,0,VALID,91.3343,VALID,0,VALID,20.494,VALID,78,VALID,0.435683,
2004-05-09, 01:00:00,VALID,917.044,VALID,0,VALID,91.7641,VALID,0.0169808,VALID,20.4095,VALID,78,VALID,0.255149,
2004-05-09, 01:01:00,VALID,917.016,VALID,0,VALID,91.9917,VALID,0.0169808,VALID,20.3422,VALID,78,VALID,0.0297256,
2004-05-09, 01:02:00,VALID,917.001,VALID,0,VALID,92.3579,VALID,0,VALID,20.2805,VALID,78,VALID,0,
2004-05-09, 01:03:00,VALID,916.97,VALID,0,VALID,92.63,VALID,0,VALID,20.2361,VALID,78,VALID,0,
2004-05-09, 01:04:00,VALID,916.943,VALID,0,VALID,93.1399,VALID,-0.0679233,VALID,20.1792,VALID,78,VALID,0.224927,
2004-05-09, 01:05:00,VALID,916.934,VALID,0,VALID,93.4159,VALID,-0.0849042,VALID,20.1114,VALID,78,VALID,0.38681,
2004-05-09, 01:06:00,VALID,916.918,VALID,0,VALID,93.7478,VALID,-0.0849042,VALID,20.0148,VALID,65,VALID,0.57706,
2004-05-09, 01:07:00,VALID,916.915,VALID,0,VALID,93.8813,VALID,-0.0849042,VALID,19.895,VALID,46,VALID,0.682736,
2004-05-09, 01:08:00,VALID,916.918,VALID,0,VALID,94.0886,VALID,-0.0509425,VALID,19.7651,VALID,39,VALID,0.619549,
2004-05-09, 01:09:00,VALID,916.92,VALID,0,VALID,94.4777,VALID,-0.0679233,VALID,19.7047,VALID,22,VALID,0.512153,
2004-05-09, 01:10:00,VALID,916.914,VALID,0,VALID,94.7879,VALID,-0.101885,VALID,19.6818,VALID,13,VALID,0.441502,
2004-05-09, 01:11:00,VALID,916.902,VALID,0,VALID,94.9291,VALID,-0.101885,VALID,19.6724,VALID,8,VALID,0.472147,
2004-05-09, 01:12:00,VALID,916.894,VALID,0,VALID,94.9431,VALID,-0.0849042,VALID,19.6789,VALID,8,VALID,0.435683,
2004-05-09, 01:13:00,VALID,916.903,VALID,0,VALID,94.9049,VALID,-0.0509425,VALID,19.6597,VALID,8,VALID,0.234738,
2004-05-09, 01:14:00,VALID,916.899,VALID,0,VALID,94.9749,VALID,-0.101885,VALID,19.6491,VALID,8,VALID,0.0574219,
2004-05-09, 01:15:00,VALID,916.88,VALID,0,VALID,94.9952,VALID,-0.0509425,VALID,19.662,VALID,8,VALID,0.00093006,
2004-05-09, 01:16:00,VALID,916.867,VALID,0,VALID,94.9685,VALID,-0.101885,VALID,19.662,VALID,8,VALID,0.0046503,
2004-05-09, 01:17:00,VALID,916.858,VALID,0,VALID,94.9316,VALID,-0.0509425,VALID,19.6821,VALID,85,VALID,0.344122,
2004-05-09, 01:18:00,VALID,916.834,VALID,0,VALID,95.0995,VALID,-0.101885,VALID,19.6689,VALID,88,VALID,0.455915,
2004-05-09, 01:19:00,VALID,916.828,VALID,0,VALID,95.2724,VALID,-0.0679233,VALID,19.659,VALID,88,VALID,0.223214,
2004-05-09, 01:20:00,VALID,916.835,VALID,0,VALID,95.2788,VALID,-0.0339617,VALID,19.6493,VALID,88,VALID,0.29742,
2004-05-09, 01:21:00,VALID,916.844,VALID,0,VALID,95.3233,VALID,-0.101885,VALID,19.6719,VALID,125,VALID,0.671342,
2004-05-09, 01:22:00,VALID,916.877,VALID,0,VALID,95.1771,VALID,-0.0509425,VALID,19.6848,VALID,151,VALID,0.776278,
2004-05-09, 01:23:00,VALID,916.885,VALID,0,VALID,94.7434,VALID,-0.0509425,VALID,19.698,VALID,152,VALID,0.482812,
2004-05-09, 01:24:00,VALID,916.873,VALID,0,VALID,94.1776,VALID,-0.0849042,VALID,19.7365,VALID,152,VALID,0.0556641,
2004-05-09, 01:25:00,VALID,916.863,VALID,0,VALID,93.5405,VALID,-0.0849042,VALID,19.7854,VALID,152,VALID,0.0256696,
2004-05-09, 01:26:00,VALID,916.833,VALID,0,VALID,93.2162,VALID,-0.0849042,VALID,19.8627,VALID,152,VALID,0.332986,
2004-05-09, 01:27:00,VALID,916.843,VALID,0,VALID,93.2633,VALID,-0.0679233,VALID,19.8918,VALID,118,VALID,0.604581,
2004-05-09, 01:28:00,VALID,916.818,VALID,0,VALID,91.9688,VALID,-0.0679233,VALID,19.8985,VALID,103,VALID,0.753162,
2004-05-09, 01:29:00,VALID,916.808,VALID,0,VALID,90.612,VALID,-0.0849042,VALID,20.0212,VALID,87,VALID,0.842361,
2004-05-09, 01:30:00,VALID,916.803,VALID,0,VALID,90.4976,VALID,-0.0509425,VALID,20.2023,VALID,42,VALID,0.570131,
2004-05-09, 01:31:00,VALID,916.805,VALID,0,VALID,91.0583,VALID,-0.101885,VALID,20.1924,VALID,279,VALID,0.859747,
2004-05-09, 01:32:00,VALID,916.799,VALID,0,VALID,91.792,VALID,-0.0679233,VALID,20.134,VALID,261,VALID,0.58754,
2004-05-09, 01:33:00,VALID,916.804,VALID,0,VALID,92.115,VALID,-0.0679233,VALID,20.2145,VALID,256,VALID,0.188262,
2004-05-09, 01:34:00,VALID,916.792,VALID,0,VALID,91.7488,VALID,0.0169808,VALID,20.2813,VALID,256,VALID,0.021875,
2004-05-09, 01:35:00,VALID,916.746,VALID,0,VALID,90.9833,VALID,0,VALID,20.3136,VALID,256,VALID,0.0803329,
2004-05-09, 01:36:00,VALID,916.737,VALID,0,VALID,90.7468,VALID,0,VALID,20.3424,VALID,306,VALID,0.525484,
2004-05-09, 01:37:00,VALID,916.719,VALID,0,VALID,91.0037,VALID,0.0169808,VALID,20.3166,VALID,55,VALID,1.04799,
2004-05-09, 01:38:00,VALID,916.728,VALID,0,VALID,91.3012,VALID,0.0169808,VALID,20.2361,VALID,89,VALID,0.536111,
2004-05-09, 01:39:00,VALID,916.719,VALID,0,VALID,91.834,VALID,0,VALID,20.1747,VALID,116,VALID,0.386265,
2004-05-09, 01:40:00,VALID,916.723,VALID,0,VALID,91.9281,VALID,0,VALID,20.1134,VALID,208,VALID,0.409339,
2004-05-09, 01:41:00,VALID,916.708,VALID,0,VALID,92.218,VALID,0.0509425,VALID,20.0681,VALID,212,VALID,0,
2004-05-09, 01:42:00,VALID,916.682,VALID,0,VALID,92.4062,VALID,0.0679233,VALID,20.0778,VALID,212,VALID,0,
2004-05-09, 01:43:00,VALID,916.664,VALID,0,VALID,92.5359,VALID,0.0509425,VALID,20.0609,VALID,89,VALID,0.795573,
2004-05-09, 01:44:00,VALID,916.637,VALID,0,VALID,92.4024,VALID,0.0169808,VALID,20.0391,VALID,47,VALID,1.01065,
2004-05-09, 01:45:00,VALID,916.633,VALID,0,VALID,92.4177,VALID,0.0509425,VALID,19.9295,VALID,46,VALID,0.790483,
2004-05-09, 01:46:00,VALID,916.61,VALID,0,VALID,93.0013,VALID,0.0849042,VALID,19.8031,VALID,46,VALID,0.679332,
2004-05-09, 01:47:00,VALID,916.599,VALID,0,VALID,93.4578,VALID,0.0339617,VALID,19.7323,VALID,46,VALID,0.301448,
2004-05-09, 01:48:00,VALID,916.578,VALID,0,VALID,93.8838,VALID,0.0339617,VALID,19.7037,VALID,46,VALID,0.00111607,
2004-05-09, 01:49:00,VALID,916.557,VALID,0,VALID,94.0809,VALID,0.0339617,VALID,19.6908,VALID,46,VALID,0.0728516,
2004-05-09, 01:50:00,VALID,916.539,VALID,0,VALID,94.175,VALID,0.0509425,VALID,19.6702,VALID,46,VALID,0.00347222,
2004-05-09, 01:51:00,VALID,916.536,VALID,0,VALID,94.142,VALID,0.0339617,VALID,19.69,VALID,46,VALID,0,
2004-05-09, 01:52:00,VALID,916.539,VALID,0,VALID,94.1382,VALID,0.0169808,VALID,19.7032,VALID,46,VALID,0,
2004-05-09, 01:53:00,VALID,916.535,VALID,0,VALID,94.0288,VALID,0.0509425,VALID,19.7323,VALID,46,VALID,0,
2004-05-09, 01:54:00,VALID,916.512,VALID,0,VALID,94.2386,VALID,0.0339617,VALID,19.7355,VALID,46,VALID,0.200868,
2004-05-09, 01:55:00,VALID,916.495,VALID,0,VALID,94.2119,VALID,0.0509425,VALID,19.7676,VALID,46,VALID,0.378729,
2004-05-09, 01:56:00,VALID,916.486,VALID,0,VALID,94.0606,VALID,0,VALID,19.7584,VALID,46,VALID,0.45419,
2004-05-09, 01:57:00,VALID,916.466,VALID,0,VALID,94.3327,VALID,0.0509425,VALID,19.7097,VALID,46,VALID,0.259201,
2004-05-09, 01:58:00,VALID,916.452,VALID,0,VALID,94.4764,VALID,0,VALID,19.6749,VALID,46,VALID,0.273074,
2004-05-09, 01:59:00,VALID,916.448,VALID,0,VALID,94.7282,VALID,0.0509425,VALID,19.6289,VALID,46,VALID,0.408918,
2004-05-09, 02:00:00,VALID,916.428,VALID,0,VALID,94.9202,VALID,0.0339617,VALID,19.6031,VALID,51,VALID,0.399891,
2004-05-09, 02:01:00,VALID,916.424,VALID,0,VALID,95.1147,VALID,0,VALID,19.5842,VALID,65,VALID,0.381624,
2004-05-09, 02:02:00,VALID,916.415,VALID,0,VALID,95.3602,VALID,0.0169808,VALID,19.5581,VALID,115,VALID,0.460751,
2004-05-09, 02:03:00,VALID,916.402,VALID,0,VALID,95.4899,VALID,0.0169808,VALID,19.5291,VALID,141,VALID,0.653988,
2004-05-09, 02:04:00,VALID,916.387,VALID,0,VALID,95.6348,VALID,-0.101885,VALID,19.5179,VALID,130,VALID,0.882227,
2004-05-09, 02:05:00,VALID,916.359,VALID,0,VALID,95.5331,VALID,-0.0849042,VALID,19.4824,VALID,119,VALID,0.529492,
2004-05-09, 02:06:00,VALID,916.33,VALID,0,VALID,94.9431,VALID,-0.0849042,VALID,19.4493,VALID,108,VALID,0.764482,
2004-05-09, 02:07:00,VALID,916.307,VALID,0,VALID,94.2997,VALID,-0.0849042,VALID,19.5015,VALID,108,VALID,0.624628,
2004-05-09, 02:08:00,VALID,916.288,VALID,0,VALID,94.2297,VALID,-0.0679233,VALID,19.5688,VALID,97,VALID,0.619318,
2004-05-09, 02:09:00,VALID,916.283,VALID,0,VALID,94.3213,VALID,-0.0509425,VALID,19.5432,VALID,68,VALID,0.556504,
2004-05-09, 02:10:00,VALID,916.266,VALID,0,VALID,94.5095,VALID,-0.0849042,VALID,19.4498,VALID,59,VALID,0.597284,
2004-05-09, 02:11:00,VALID,916.262,VALID,0,VALID,94.7994,VALID,-0.0849042,VALID,19.3532,VALID,57,VALID,0.501116,
2004-05-09, 02:12:00,VALID,916.268,VALID,0,VALID,95.1707,VALID,-0.0849042,VALID,19.2881,VALID,57,VALID,0.196221,
2004-05-09, 02:13:00,VALID,916.275,VALID,0,VALID,95.2534,VALID,-0.0679233,VALID,19.3075,VALID,263,VALID,0.835175,
2004-05-09, 02:14:00,VALID,916.282,VALID,0,VALID,95.2292,VALID,-0.0339617,VALID,19.4208,VALID,264,VALID,0.779797,
2004-05-09, 02:15:00,VALID,916.267,VALID,0,VALID,95.2216,VALID,-0.0339617,VALID,19.5008,VALID,264,VALID,0.39974,
2004-05-09, 02:16:00,VALID,916.243,VALID,0,VALID,95.013,VALID,-0.101885,VALID,19.5564,VALID,264,VALID,0.0181686,
2004-05-09, 02:17:00,VALID,916.231,VALID,0,VALID,94.8057,VALID,-0.0849042,VALID,19.5788,VALID,268,VALID,0.15554,
2004-05-09, 02:18:00,VALID,916.212,VALID,0,VALID,94.4878,VALID,-0.0849042,VALID,19.5792,VALID,269,VALID,0.0579579,
2004-05-09, 02:19:00,VALID,916.209,VALID,0,VALID,94.5514,VALID,-0.0679233,VALID,19.5725,VALID,269,VALID,0.170785,
2004-05-09, 02:20:00,VALID,916.21,VALID,0,VALID,94.6557,VALID,-0.0849042,VALID,19.5661,VALID,269,VALID,0.0427827,
2004-05-09, 02:21:00,VALID,916.206,VALID,0,VALID,94.6735,VALID,-0.101885,VALID,19.5661,VALID,269,VALID,0.0290698,
2004-05-09, 02:22:00,VALID,916.185,VALID,0,VALID,94.7206,VALID,-0.0849042,VALID,19.5765,VALID,269,VALID,0.182812,
2004-05-09, 02:23:00,VALID,916.167,VALID,0,VALID,94.5552,VALID,-0.0679233,VALID,19.5437,VALID,269,VALID,0.435683,
2004-05-09, 02:24:00,VALID,916.169,VALID,0,VALID,94.5336,VALID,-0.0679233,VALID,19.5015,VALID,181,VALID,0.890278,
2004-05-09, 02:25:00,VALID,916.157,VALID,0,VALID,95.1682,VALID,-0.0679233,VALID,19.4565,VALID,123,VALID,1.31288,
2004-05-09, 02:26:00,VALID,916.158,VALID,0,VALID,95.5903,VALID,-0.0849042,VALID,19.424,VALID,126,VALID,1.04084,
2004-05-09, 02:27:00,VALID,916.14,VALID,0,VALID,96.0685,VALID,-0.0849042,VALID,19.4208,VALID,126,VALID,0.763139,
2004-05-09, 02:28:00,VALID,916.13,VALID,0,VALID,96.3914,VALID,-0.101885,VALID,19.4212,VALID,131,VALID,0.507267,
2004-05-09, 02:29:00,VALID,916.125,VALID,0,VALID,96.8136,VALID,-0.0679233,VALID,19.418,VALID,135,VALID,0.308866,
2004-05-09, 02:30:00,VALID,916.13,VALID,0,VALID,97.2421,VALID,-0.0679233,VALID,19.4237,VALID,140,VALID,0.689062,
2004-05-09, 02:31:00,VALID,916.124,VALID,0,VALID,97.4965,VALID,-0.0509425,VALID,19.4404,VALID,138,VALID,0.803571,
2004-05-09, 02:32:00,VALID,916.148,VALID,0,VALID,97.6821,VALID,-0.0849042,VALID,19.4401,VALID,132,VALID,0.698038,
2004-05-09, 02:33:00,VALID,916.138,VALID,0,VALID,97.8589,VALID,-0.0849042,VALID,19.4503,VALID,125,VALID,0.852865,
2004-05-09, 02:34:00,VALID,916.118,VALID,0,VALID,97.9301,VALID,-0.101885,VALID,19.4344,VALID,120,VALID,0.691034,
2004-05-09, 02:35:00,VALID,916.105,VALID,0,VALID,97.5804,VALID,-0.0849042,VALID,19.3666,VALID,93,VALID,0.525152,
2004-05-09, 02:36:00,VALID,916.084,VALID,0,VALID,97.1213,VALID,-0.0339617,VALID,19.2364,VALID,86,VALID,0.551054,
2004-05-09, 02:37:00,VALID,916.07,VALID,0,VALID,97.883,VALID,-0.0679233,VALID,19.1982,VALID,84,VALID,0.731889,
2004-05-09, 02:38:00,VALID,916.043,VALID,0,VALID,98.1602,VALID,-0.0679233,VALID,19.2277,VALID,85,VALID,0.602121,
2004-05-09, 02:39:00,VALID,916.021,VALID,0,VALID,98.0102,VALID,-0.0849042,VALID,19.2503,VALID,85,VALID,0.590116,
2004-05-09, 02:40:00,VALID,916.01,VALID,0,VALID,97.4863,VALID,-0.0849042,VALID,19.1878,VALID,74,VALID,0.525799,
2004-05-09, 02:41:00,VALID,915.993,VALID,0,VALID,96.8556,VALID,-0.0339617,VALID,19.1204,VALID,60,VALID,0.638889,
2004-05-09, 02:42:00,VALID,915.991,VALID,0,VALID,96.7043,VALID,-0.0849042,VALID,19.0335,VALID,57,VALID,0.455669,
2004-05-09, 02:43:00,VALID,915.997,VALID,0,VALID,96.9649,VALID,-0.0679233,VALID,18.9788,VALID,57,VALID,0.288132,
2004-05-09, 02:44:00,VALID,916.01,VALID,0,VALID,97.3579,VALID,-0.0509425,VALID,18.9692,VALID,57,VALID,0.0517113,
2004-05-09, 02:45:00,VALID,916.022,VALID,0,VALID,97.6491,VALID,-0.0679233,VALID,18.9751,VALID,57,VALID,0.0642149,
2004-05-09, 02:46:00,VALID,916.032,VALID,0,VALID,97.8398,VALID,-0.0509425,VALID,18.9977,VALID,138,VALID,0.425223,
2004-05-09, 02:47:00,VALID,916.047,VALID,0,VALID,97.8487,VALID,-0.0679233,VALID,19.0139,VALID,179,VALID,0.567769,
2004-05-09, 02:48:00,VALID,916.052,VALID,0,VALID,97.9046,VALID,-0.101885,VALID,19.0171,VALID,158,VALID,0.588986,
2004-05-09, 02:49:00,VALID,916.045,VALID,0,VALID,98.1869,VALID,-0.0679233,VALID,19.0467,VALID,120,VALID,1.05369,
2004-05-09, 02:50:00,VALID,916.056,VALID,0,VALID,97.7495,VALID,-0.101885,VALID,19.0432,VALID,70,VALID,1.16667,
2004-05-09, 02:51:00,VALID,916.07,VALID,0,VALID,97.2981,VALID,-0.101885,VALID,19.0079,VALID,66,VALID,1.37865,
2004-05-09, 02:52:00,VALID,916.07,VALID,0,VALID,97.5511,VALID,-0.0849042,VALID,19.0014,VALID,79,VALID,1.34551,
2004-05-09, 02:53:00,VALID,916.059,VALID,0,VALID,97.7762,VALID,-0.101885,VALID,19.0829,VALID,88,VALID,1.25074,
2004-05-09, 02:54:00,VALID,916.044,VALID,0,VALID,97.4138,VALID,-0.101885,VALID,19.1791,VALID,90,VALID,1.11068,
2004-05-09, 02:55:00,VALID,916.05,VALID,0,VALID,96.6292,VALID,-0.101885,VALID,19.2993,VALID,86,VALID,0.338118,
2004-05-09, 02:56:00,VALID,916.059,VALID,0,VALID,95.851,VALID,-0.0849042,VALID,19.3085,VALID,86,VALID,0,
2004-05-09, 02:57:00,VALID,916.077,VALID,0,VALID,95.659,VALID,-0.101885,VALID,19.2985,VALID,86,VALID,0,
2004-05-09, 02:58:00,VALID,916.069,VALID,0,VALID,95.5636,VALID,-0.101885,VALID,19.266,VALID,86,VALID,0,
2004-05-09, 02:59:00,VALID,916.089,VALID,0,VALID,95.5789,VALID,-0.101885,VALID,19.2372,VALID,86,VALID,0.0272529,
2004-05-09, 03:00:00,VALID,916.085,VALID,0,VALID,95.7493,VALID,-0.0339617,VALID,19.2012,VALID,86,VALID,0.0686384,
2004-05-09, 03:01:00,VALID,916.052,VALID,0,VALID,96.3253,VALID,-0.0849042,VALID,19.1982,VALID,86,VALID,0.346467,
2004-05-09, 03:02:00,VALID,916.032,VALID,0,VALID,96.6686,VALID,-0.0849042,VALID,19.2178,VALID,86,VALID,0.358648,
2004-05-09, 03:03:00,VALID,916.022,VALID,0,VALID,96.0443,VALID,-0.0679233,VALID,19.1624,VALID,73,VALID,0.439631,
2004-05-09, 03:04:00,VALID,916.015,VALID,0,VALID,95.8294,VALID,0.0169808,VALID,19.0904,VALID,71,VALID,0.45149,
2004-05-09, 03:05:00,VALID,916.007,VALID,0,VALID,95.9705,VALID,0,VALID,19.0427,VALID,69,VALID,0.443638,
2004-05-09, 03:06:00,VALID,916.011,VALID,0,VALID,96.1104,VALID,0.0339617,VALID,18.9811,VALID,69,VALID,0.494336,
2004-05-09, 03:07:00,VALID,916.011,VALID,0,VALID,96.3393,VALID,0,VALID,18.9458,VALID,69,VALID,0.411701,
2004-05-09, 03:08:00,VALID,916.008,VALID,0,VALID,96.9535,VALID,0.0169808,VALID,18.9098,VALID,69,VALID,0.4016,
2004-05-09, 03:09:00,VALID,915.996,VALID,0,VALID,97.555,VALID,0.0169808,VALID,18.9354,VALID,72,VALID,0.470084,
2004-05-09, 03:10:00,VALID,915.981,VALID,0,VALID,97.6224,VALID,0,VALID,18.9613,VALID,80,VALID,0.550409,
2004-05-09, 03:11:00,VALID,915.985,VALID,0,VALID,97.6033,VALID,0.0509425,VALID,18.9774,VALID,83,VALID,0.63157,
2004-05-09, 03:12:00,VALID,915.984,VALID,0,VALID,97.2027,VALID,0.0169808,VALID,18.9975,VALID,85,VALID,0.422637,
2004-05-09, 03:13:00,VALID,915.992,VALID,0,VALID,96.7971,VALID,0.0169808,VALID,18.9844,VALID,90,VALID,0.484561,
2004-05-09, 03:14:00,VALID,915.984,VALID,0,VALID,96.7093,VALID,0.0509425,VALID,18.9521,VALID,124,VALID,0.653582,
2004-05-09, 03:15:00,VALID,915.991,VALID,0,VALID,97.0527,VALID,0.0169808,VALID,18.9488,VALID,115,VALID,0.534339,
2004-05-09, 03:16:00,VALID,915.967,VALID,0,VALID,97.3286,VALID,0,VALID,18.9297,VALID,109,VALID,0.337754,
2004-05-09, 03:17:00,VALID,915.951,VALID,0,VALID,97.0311,VALID,0,VALID,18.9004,VALID,109,VALID,0.354802,
2004-05-09, 03:18:00,VALID,915.925,VALID,0,VALID,96.338,VALID,0.0339617,VALID,18.7941,VALID,82,VALID,0.541969,
2004-05-09, 03:19:00,VALID,915.913,VALID,0,VALID,96.5364,VALID,0.0169808,VALID,18.6942,VALID,73,VALID,0.452217,
2004-05-09, 03:20:00,VALID,915.909,VALID,0,VALID,96.937,VALID,0,VALID,18.6391,VALID,73,VALID,0.378906,
2004-05-09, 03:21:00,VALID,915.92,VALID,0,VALID,97.1709,VALID,0,VALID,18.5838,VALID,73,VALID,0.0434028,
2004-05-09, 03:22:00,VALID,915.92,VALID,0,VALID,97.349,VALID,-0.0169808,VALID,18.5716,VALID,73,VALID,0,
2004-05-09, 03:23:00,VALID,915.909,VALID,0,VALID,97.5575,VALID,-0.0169808,VALID,18.5619,VALID,73,VALID,0,
2004-05-09, 03:24:00,VALID,915.911,VALID,0,VALID,97.9339,VALID,0,VALID,18.5912,VALID,73,VALID,0,
2004-05-09, 03:25:00,VALID,915.914,VALID,0,VALID,98.3472,VALID,0.0169808,VALID,18.6585,VALID,73,VALID,0,
2004-05-09, 03:26:00,VALID,915.893,VALID,0,VALID,98.3217,VALID,0.0169808,VALID,18.7039,VALID,73,VALID,0,
2004-05-09, 03:27:00,VALID,915.875,VALID,0,VALID,98.1628,VALID,0,VALID,18.688,VALID,73,VALID,0.43471,
2004-05-09, 03:28:00,VALID,915.857,VALID,0,VALID,98.1653,VALID,0,VALID,18.7265,VALID,57,VALID,0.772195,
2004-05-09, 03:29:00,VALID,915.852,VALID,0,VALID,98.3154,VALID,0,VALID,18.7782,VALID,55,VALID,0.87128,
2004-05-09, 03:30:00,VALID,915.864,VALID,0,VALID,98.3294,VALID,0,VALID,18.8589,VALID,78,VALID,0.823047,
2004-05-09, 03:31:00,VALID,915.872,VALID,0,VALID,97.6084,VALID,0,VALID,18.9136,VALID,97,VALID,0.364211,
2004-05-09, 03:32:00,VALID,915.861,VALID,0,VALID,96.9039,VALID,0,VALID,18.9498,VALID,97,VALID,0,
2004-05-09, 03:33:00,VALID,915.858,VALID,0,VALID,96.3419,VALID,0.0339617,VALID,18.9269,VALID,97,VALID,0.024966,
2004-05-09, 03:34:00,VALID,915.849,VALID,0,VALID,96.5389,VALID,-0.0339617,VALID,18.8919,VALID,97,VALID,0.308866,